FW7828 Weather Reports


Display with metric or nautical units.
time (UTC)temp
F
wind
direction
speed
MPH
gust
MPH
rain 1hr
in
rain 24hr
in
rain mn
in
humidity
%
barometer
mb
20221209162327 53 47 1.0 1.0 0.00 0.02 0.02 71 1022.7
20221209161827 52 14 4.0 5.0 0.00 0.02 0.02 69 1022.6
20221209161326 52 25 2.0 3.0 0.00 0.02 0.02 71 1022.5
20221209160825 52 46 3.0 3.0 0.00 0.02 0.02 69 1022.8
20221209160325 52 37 2.0 2.0 0.00 0.02 0.02 70 1022.7
20221209155825 53 51 4.0 5.0 0.00 0.02 0.02 70 1022.9
20221209155325 51 14 4.0 5.0 0.00 0.02 0.02 72 1022.7
20221209154825 51 8 1.0 2.0 0.00 0.02 0.02 74 1022.7
20221209154324 50 35 1.0 1.0 0.00 0.02 0.02 75 1022.9
20221209153823 50 33 2.0 2.0 0.00 0.02 0.02 76 1023.0
20221209153323 49 11 2.0 2.0 0.00 0.02 0.02 76 1023.3
20221209152822 49 35 4.0 5.0 0.00 0.02 0.02 75 1023.1
20221209152322 50 8 3.0 3.0 0.00 0.02 0.02 76 1023.1
20221209151821 50 20 3.0 3.0 0.00 0.02 0.02 76 1023.2
20221209151319 49 6 4.0 5.0 0.00 0.02 0.02 75 1023.3
20221209150819 49 36 1.0 1.0 0.00 0.02 0.02 77 1023.2
20221209150320 49 23 3.0 3.0 0.00 0.02 0.02 75 1023.1
20221209145818 50 0 3.0 3.0 0.00 0.02 0.02 75 1023.1
20221209145317 50 359 2.0 3.0 0.00 0.02 0.02 76 1023.1
20221209144816 49 13 2.0 2.0 0.00 0.02 0.02 80 1023.0
20221209144316 48 6 4.0 5.0 0.00 0.02 0.02 80 1023.1
20221209143816 48 42 1.0 2.0 0.00 0.02 0.02 84 1023.1
20221209143314 48 34 1.0 2.0 0.00 0.02 0.02 85 1023.1
20221209142814 48 37 1.0 2.0 0.00 0.02 0.02 86 1023.2
20221209142314 47 20 1.0 1.0 0.00 0.02 0.02 86 1023.1
20221209141812 47 41 2.0 3.0 0.00 0.02 0.02 87 1023.1
20221209141310 47 30 1.0 1.0 0.00 0.02 0.02 91 1023.1
20221209140810 47 23 0.0 1.0 0.00 0.02 0.02 92 1023.4
20221209140309 47 40 0.0 1.0 0.00 0.02 0.02 92 1023.1
20221209135808 47 40 0.0 1.0 0.00 0.02 0.02 91 1023.0
20221209135307 47 32 0.0 1.0 0.04 0.02 0.02 91 1023.3
20221209134806 47 48 0.0 1.0 0.04 0.02 0.02 90 1023.0
20221209134304 47 23 1.0 1.0 0.07 0.01 0.01 88 1023.1
20221209133802 47 40 1.0 1.0 0.07 0.01 0.01 87 1023.0
20221209133301 47 19 2.0 2.0 0.00 0.00 0.00 87 1022.8
20221209132800 47 35 1.0 1.0 0.00 0.00 0.00 87 1023.0
20221209132259 48 40 1.0 1.0 0.00 0.00 0.00 84 1023.0
20221209131757 48 24 0.0 0.0 0.00 0.00 0.00 82 1022.9
20221209131256 48 48 2.0 2.0 0.00 0.00 0.00 82 1022.7
20221209130755 48 26 1.0 1.0 0.00 0.00 0.00 82 1022.7
20221209130254 48 2 3.0 3.0 0.00 0.00 0.00 82 1022.5
20221209125753 48 27 1.0 1.0 0.00 0.00 0.00 81 1022.7
20221209125253 48 18 2.0 3.0 0.00 0.00 0.00 80 1022.4
20221209124753 48 35 1.0 1.0 0.00 0.00 0.00 79 1022.5
20221209124251 48 18 3.0 5.0 0.00 0.00 0.00 78 1022.4
20221209123751 48 41 2.0 2.0 0.00 0.00 0.00 79 1022.4
20221209123250 48 28 3.0 5.0 0.00 0.00 0.00 79 1022.3
20221209122750 48 16 3.0 3.0 0.00 0.00 0.00 78 1022.2
20221209122248 48 24 2.0 2.0 0.00 0.00 0.00 78 1022.2
20221209121748 48 14 3.0 5.0 0.00 0.00 0.00 78 1022.3
20221209121247 48 24 3.0 3.0 0.00 0.00 0.00 79 1022.1
20221209120746 48 23 2.0 2.0 0.00 0.00 0.00 79 1022.4
20221209120246 48 21 4.0 5.0 0.00 0.00 0.00 79 1022.1
20221209115745 48 34 3.0 3.0 0.00 0.00 0.00 81 1022.2
20221209115244 49 24 2.0 2.0 0.00 0.00 0.00 81 1022.2
20221209114744 49 24 6.0 7.0 0.00 0.00 0.00 81 1022.2
20221209114244 49 27 2.0 2.0 0.00 0.00 0.00 81 1022.3
20221209113744 49 19 2.0 2.0 0.00 0.00 0.00 82 1022.0
20221209113242 49 44 2.0 2.0 0.00 0.00 0.00 83 1022.1
20221209112740 49 23 0.0 1.0 0.00 0.00 0.00 83 1022.3
20221209112240 49 24 2.0 2.0 0.00 0.00 0.00 84 1021.9
20221209111738 49 36 2.0 2.0 0.00 0.00 0.00 84 1022.1
20221209111236 49 6 3.0 3.0 0.00 0.00 0.00 85 1022.1
20221209110736 49 24 1.0 2.0 0.00 0.00 0.00 85 1021.9
20221209110234 49 55 1.0 1.0 0.00 0.00 0.00 85 1021.9
20221209105734 50 24 2.0 2.0 0.00 0.00 0.00 85 1021.9
20221209105232 50 19 2.0 3.0 0.00 0.00 0.00 86 1021.9
20221209104730 50 38 4.0 5.0 0.00 0.00 0.00 86 1021.8
20221209104230 50 47 2.0 2.0 0.00 0.00 0.00 86 1021.8
20221209103728 50 39 1.0 2.0 0.00 0.00 0.00 86 1021.6
20221209103227 50 38 2.0 2.0 0.00 0.00 0.00 87 1021.7
20221209102726 50 12 3.0 3.0 0.00 0.00 0.00 87 1021.6
20221209102226 50 18 2.0 2.0 0.00 0.00 0.00 87 1021.7
20221209101724 50 14 4.0 6.0 0.00 0.00 0.00 87 1021.7
20221209101223 50 6 3.0 3.0 0.00 0.00 0.00 87 1021.4
20221209100720 50 23 2.0 2.0 0.00 0.00 0.00 87 1021.2
20221209100220 50 28 2.0 2.0 0.00 0.00 0.00 87 1021.4
20221209095720 50 19 4.0 5.0 0.00 0.00 0.00 87 1021.6
20221209095218 50 35 1.0 2.0 0.00 0.00 0.00 88 1021.4
20221209094717 50 20 3.0 3.0 0.00 0.00 0.00 89 1021.4
20221209094215 50 31 2.0 2.0 0.00 0.00 0.00 89 1021.6
20221209093714 50 20 3.0 3.0 0.00 0.00 0.00 89 1021.6
20221209093213 50 19 3.0 3.0 0.00 0.00 0.00 89 1021.4
20221209092711 50 22 2.0 2.0 0.00 0.00 0.00 89 1021.3
20221209092210 50 27 1.0 2.0 0.00 0.00 0.00 89 1021.3
20221209091708 50 37 3.0 3.0 0.00 0.00 0.00 89 1021.3
20221209091207 50 28 2.0 2.0 0.00 0.00 0.00 90 1021.6
20221209090706 50 25 1.0 2.0 0.00 0.00 0.00 90 1021.6
20221209090205 50 51 1.0 2.0 0.00 0.00 0.00 90 1021.9
20221209085705 50 14 2.0 2.0 0.00 0.00 0.00 90 1022.0
20221209085204 50 80 2.0 2.0 0.00 0.00 0.00 90 1022.0
20221209084704 50 15 2.0 2.0 0.00 0.00 0.00 90 1021.7
20221209084202 50 6 2.0 2.0 0.00 0.00 0.00 90 1021.7
20221209083700 50 343 1.0 2.0 0.00 0.00 0.00 90 1021.4
20221209083200 50 34 1.0 1.0 0.00 0.00 0.00 90 1021.5
20221209082700 50 27 1.0 2.0 0.00 0.00 0.00 90 1021.4
20221209082200 50 23 1.0 2.0 0.00 0.00 0.00 91 1021.3
20221209081700 50 16 2.0 2.0 0.00 0.00 0.00 91 1021.2
20221209081158 50 26 1.0 2.0 0.00 0.00 0.00 92 1021.5
20221209080657 50 33 2.0 2.0 0.00 0.00 0.00 92 1021.7
20221209080157 50 30 1.0 1.0 0.00 0.00 0.00 92 1021.8
20221209075656 50 21 1.0 1.0 0.00 0.00 0.00 92 1022.1
20221209075154 50 20 1.0 2.0 0.00 0.00 0.00 91 1022.0
20221209074652 50 29 1.0 1.0 0.00 0.00 0.00 90 1021.8
20221209074152 51 23 2.0 2.0 0.00 0.00 0.00 89 1021.8
20221209073650 51 34 1.0 1.0 0.00 0.00 0.00 88 1022.1
20221209073150 51 18 3.0 3.0 0.00 0.00 0.00 88 1022.2
20221209072650 51 19 2.0 2.0 0.00 0.00 0.00 88 1022.0
20221209072150 51 34 1.0 2.0 0.00 0.00 0.00 88 1022.2
20221209071648 51 6 2.0 2.0 0.00 0.00 0.00 89 1021.8
20221209071147 51 28 2.0 2.0 0.00 0.00 0.00 89 1022.0
20221209070647 50 31 0.0 1.0 0.00 0.00 0.00 90 1022.1
20221209070147 51 19 1.0 1.0 0.00 0.00 0.00 89 1021.8
20221209065647 51 29 1.0 1.0 0.00 0.00 0.00 89 1022.0
20221209065146 50 23 1.0 2.0 0.00 0.00 0.00 90 1021.8
20221209064645 51 34 2.0 2.0 0.00 0.00 0.00 90 1021.7
20221209064145 51 359 2.0 2.0 0.00 0.00 0.00 90 1021.7
20221209063643 51 29 2.0 2.0 0.00 0.00 0.00 89 1021.7
20221209063143 51 343 2.0 2.0 0.00 0.00 0.00 89 1021.7
20221209062642 51 20 2.0 2.0 0.00 0.00 0.00 89 1021.8
20221209062142 51 4 3.0 3.0 0.00 0.00 0.00 88 1021.8
20221209061641 51 10 2.0 2.0 0.00 0.00 0.00 88 1021.6
20221209061140 51 28 1.0 1.0 0.00 0.00 0.00 87 1021.8
20221209060639 51 5 3.0 3.0 0.00 0.00 0.00 87 1022.0
20221209060137 51 21 2.0 2.0 0.00 0.00 0.00 88 1021.9
20221209055635 51 22 2.0 2.0 0.00 0.00 0.00 88 1022.1
20221209055133 51 29 1.0 2.0 0.00 0.00 0.00 88 1021.9
20221209054633 51 14 3.0 3.0 0.00 0.00 0.00 89 1021.9
20221209054133 51 21 1.0 2.0 0.00 0.00 0.00 89 1022.1
20221209053631 51 24 2.0 2.0 0.00 0.00 0.00 89 1022.4
20221209053129 51 17 2.0 2.0 0.00 0.00 0.00 89 1022.0
20221209052628 51 35 1.0 1.0 0.00 0.00 0.00 88 1022.1
20221209052128 51 46 2.0 3.0 0.00 0.00 0.00 89 1022.0
20221209051626 51 15 1.0 2.0 0.00 0.00 0.00 89 1021.8
20221209051126 51 12 1.0 2.0 0.00 0.00 0.00 89 1021.9
20221209050626 51 23 0.0 1.0 0.00 0.00 0.00 89 1021.9
20221209050125 51 23 2.0 2.0 0.00 0.00 0.00 89 1022.1
20221209045625 51 28 1.0 2.0 0.00 0.00 0.00 89 1022.1
20221209045124 51 24 2.0 2.0 0.00 0.00 0.00 89 1022.0
20221209044622 51 23 2.0 2.0 0.00 0.00 0.00 89 1022.1
20221209044121 51 37 1.0 1.0 0.00 0.00 0.00 89 1022.2
20221209043621 51 28 1.0 1.0 0.00 0.00 0.00 89 1022.1
20221209043120 51 24 2.0 2.0 0.00 0.00 0.00 89 1022.3
20221209042619 51 30 1.0 1.0 0.00 0.00 0.00 89 1022.1
20221209042118 51 34 1.0 1.0 0.00 0.00 0.00 90 1022.1
20221209041617 51 31 1.0 1.0 0.00 0.00 0.00 89 1022.2
20221209041118 51 34 1.0 1.0 0.00 0.00 0.00 89 1022.1
20221209040617 51 13 1.0 1.0 0.00 0.00 0.00 89 1022.0
20221209040117 51 13 1.0 1.0 0.00 0.00 0.00 89 1022.1
20221209035615 51 13 1.0 1.0 0.00 0.00 0.00 89 1021.8
20221209035113 51 23 1.0 1.0 0.00 0.00 0.00 89 1022.1
20221209034611 51 23 1.0 1.0 0.00 0.00 0.00 90 1022.0
20221209034111 51 23 1.0 1.0 0.00 0.00 0.00 89 1022.3
20221209033609 51 23 0.0 1.0 0.00 0.00 0.00 89 1021.9
20221209033107 51 23 1.0 1.0 0.00 0.00 0.00 89 1021.9
20221209032607 51 23 1.0 1.0 0.00 0.00 0.00 88 1021.8
20221209032107 51 23 1.0 1.0 0.00 0.00 0.00 89 1021.9
20221209031606 51 23 0.0 1.0 0.00 0.00 0.00 88 1022.0
20221209031105 51 23 0.0 0.0 0.00 0.00 0.00 88 1021.8
20221209030603 51 23 1.0 1.0 0.00 0.00 0.00 88 1021.9
20221209030102 51 23 1.0 1.0 0.00 0.00 0.00 88 1022.0
20221209025600 51 24 1.0 1.0 0.00 0.00 0.00 89 1022.0
20221209025100 51 28 1.0 1.0 0.00 0.00 0.00 89 1022.2
20221209024600 52 28 0.0 1.0 0.00 0.00 0.00 88 1022.5
20221209024059 52 28 1.0 1.0 0.00 0.00 0.00 87 1022.1
20221209023559 52 13 1.0 1.0 0.00 0.00 0.00 88 1022.2
20221209023059 52 23 1.0 1.0 0.00 0.00 0.00 87 1022.0
20221209022558 52 13 2.0 2.0 0.00 0.00 0.00 87 1021.9
20221209022057 52 18 1.0 1.0 0.00 0.00 0.00 87 1021.9
20221209021556 52 24 1.0 1.0 0.00 0.00 0.00 88 1022.2
20221209021055 52 23 1.0 1.0 0.00 0.00 0.00 87 1022.2
20221209020554 52 44 0.0 1.0 0.00 0.00 0.00 87 1021.9
20221209020053 52 18 1.0 2.0 0.00 0.00 0.00 88 1021.7
20221209015552 52 28 1.0 1.0 0.00 0.00 0.00 89 1022.0
20221209015050 52 24 1.0 1.0 0.00 0.00 0.00 88 1022.1
20221209014550 52 29 0.0 1.0 0.00 0.00 0.00 88 1022.3
20221209014050 52 28 1.0 1.0 0.00 0.00 0.00 88 1022.5
20221209013549 52 29 0.0 1.0 0.00 0.00 0.00 88 1022.4
20221209013049 52 29 0.0 0.0 0.00 0.00 0.00 88 1022.5
20221209012548 52 29 0.0 0.0 0.00 0.00 0.00 89 1022.8
20221209012047 53 28 1.0 1.0 0.00 0.00 0.00 90 1022.9
20221209011545 53 29 1.0 1.0 0.00 0.00 0.00 89 1022.7
20221209011045 53 29 1.0 1.0 0.00 0.00 0.00 87 1022.4
20221209010545 53 23 1.0 2.0 0.00 0.00 0.00 88 1022.2
20221209010045 53 11 1.0 2.0 0.00 0.00 0.00 87 1022.1
20221209005543 53 41 0.0 1.0 0.00 0.00 0.00 87 1022.2
20221209005043 53 29 1.0 1.0 0.00 0.00 0.00 87 1022.2
20221209004541 53 23 1.0 1.0 0.00 0.00 0.00 87 1022.3
20221209004040 53 29 0.0 0.0 0.00 0.00 0.00 87 1022.3
20221209003540 53 14 2.0 3.0 0.00 0.00 0.00 87 1022.2
20221209003040 53 41 0.0 0.0 0.00 0.00 0.00 87 1022.2
20221209002540 53 44 1.0 1.0 0.00 0.00 0.00 87 1022.1
20221209002039 53 23 2.0 2.0 0.00 0.00 0.00 87 1022.4
20221209001539 53 23 1.0 2.0 0.00 0.00 0.00 86 1022.1
20221209001037 53 44 1.0 1.0 0.00 0.00 0.00 86 1022.1
20221209000536 53 28 2.0 2.0 0.00 0.00 0.00 86 1022.1
20221209000034 53 5 1.0 1.0 0.00 0.00 0.00 85 1022.3
20221208235533 54 18 3.0 5.0 0.00 0.00 0.00 85 1022.1
20221208235032 53 36 1.0 2.0 0.00 0.00 0.00 85 1021.9
20221208234532 53 25 3.0 3.0 0.00 0.00 0.00 86 1022.0
20221208234031 54 28 2.0 2.0 0.00 0.00 0.00 86 1022.1
20221208233529 54 18 2.0 2.0 0.00 0.00 0.00 86 1022.1
20221208233027 54 24 1.0 1.0 0.00 0.00 0.00 86 1022.0
20221208232527 53 27 1.0 1.0 0.00 0.00 0.00 87 1021.9
20221208232026 53 41 1.0 1.0 0.00 0.00 0.00 88 1022.0
20221208231524 53 18 1.0 2.0 0.00 0.00 0.00 88 1021.7
20221208231024 53 19 0.0 1.0 0.00 0.00 0.00 88 1022.0
20221208230524 53 18 0.0 1.0 0.00 0.00 0.00 90 1022.0
20221208230022 53 19 0.0 0.0 0.00 0.00 0.00 90 1021.9
20221208225522 53 18 0.0 0.0 0.00 0.00 0.00 90 1022.1
20221208225021 54 18 0.0 0.0 0.00 0.00 0.00 89 1022.2
20221208224519 54 19 0.0 0.0 0.00 0.00 0.00 89 1022.2
20221208224019 54 18 0.0 0.0 0.00 0.00 0.00 88 1022.0
20221208223518 54 19 0.0 0.0 0.00 0.00 0.00 88 1022.3
20221208223017 54 19 0.0 0.0 0.00 0.00 0.00 88 1022.0
20221208222517 54 19 0.0 0.0 0.00 0.00 0.00 87 1021.8
20221208222016 54 19 0.0 0.0 0.00 0.00 0.00 86 1021.9
20221208221514 54 18 1.0 1.0 0.00 0.00 0.00 86 1021.9
20221208221013 55 18 1.0 1.0 0.00 0.00 0.00 86 1021.9
20221208220511 55 19 0.0 0.0 0.00 0.00 0.00 85 1021.6
20221208220011 55 19 1.0 1.0 0.00 0.00 0.00 83 1021.9
20221208215511 55 14 0.0 1.0 0.00 0.00 0.00 82 1021.9
20221208215010 55 41 1.0 1.0 0.00 0.00 0.00 82 1021.8
20221208214510 55 29 1.0 1.0 0.00 0.00 0.00 82 1021.5
20221208214009 55 19 1.0 1.0 0.00 0.00 0.00 83 1021.6
20221208213507 56 29 1.0 2.0 0.00 0.00 0.00 81 1021.7
20221208213007 56 23 1.0 2.0 0.00 0.00 0.00 82 1021.7
20221208212506 56 44 0.0 1.0 0.00 0.00 0.00 81 1021.7
20221208212004 56 19 1.0 1.0 0.00 0.00 0.00 81 1021.9
20221208211504 57 18 1.0 2.0 0.00 0.00 0.00 80 1021.5
20221208211002 57 30 3.0 3.0 0.00 0.00 0.00 79 1021.3
20221208210500 57 29 1.0 1.0 0.00 0.00 0.00 80 1021.4
20221208210000 57 19 4.0 5.0 0.00 0.00 0.00 81 1021.5
20221208205500 57 46 1.0 1.0 0.00 0.00 0.00 81 1021.7
20221208204959 57 13 2.0 2.0 0.00 0.00 0.00 81 1021.5
20221208204458 57 33 1.0 1.0 0.00 0.00 0.00 80 1021.4
20221208203957 58 32 3.0 3.0 0.00 0.00 0.00 80 1021.7
20221208203457 58 38 2.0 2.0 0.00 0.00 0.00 81 1021.9
20221208202955 58 16 4.0 5.0 0.00 0.00 0.00 79 1021.8
20221208202455 58 62 0.0 1.0 0.00 0.00 0.00 80 1021.9
20221208201954 58 29 2.0 2.0 0.00 0.00 0.00 79 1021.7
20221208201454 59 40 2.0 2.0 0.00 0.00 0.00 79 1022.0
20221208200953 59 30 2.0 3.0 0.00 0.00 0.00 79 1022.2
20221208200453 59 14 1.0 2.0 0.00 0.00 0.00 80 1022.0
20221208195951 59 26 2.0 2.0 0.00 0.00 0.00 79 1021.7
20221208195451 59 31 2.0 2.0 0.00 0.00 0.00 79 1021.8
20221208194949 59 17 2.0 2.0 0.00 0.00 0.00 79 1021.8
20221208194448 59 23 2.0 2.0 0.00 0.00 0.00 80 1021.6
20221208193948 59 19 1.0 1.0 0.00 0.00 0.00 80 1021.5
20221208193445 58 37 1.0 2.0 0.00 0.00 0.00 81 1021.4
20221208192944 58 19 1.0 2.0 0.00 0.00 0.00 83 1021.5
20221208192442 58 57 1.0 1.0 0.00 0.00 0.00 83 1021.7
20221208191941 58 54 1.0 1.0 0.00 0.00 0.00 84 1021.5
20221208191440 58 44 1.0 1.0 0.00 0.00 0.00 83 1021.8
20221208190940 58 83 2.0 2.0 0.00 0.00 0.00 83 1021.5
20221208190439 59 42 1.0 1.0 0.00 0.00 0.00 82 1021.5
20221208185939 59 89 2.0 2.0 0.00 0.00 0.00 81 1021.6
20221208185438 59 29 2.0 2.0 0.00 0.00 0.00 80 1021.4
20221208184936 59 8 3.0 5.0 0.00 0.00 0.00 80 1021.5
20221208184436 59 53 1.0 1.0 0.00 0.00 0.00 81 1021.5
20221208183935 59 15 2.0 3.0 0.00 0.00 0.00 82 1021.6
20221208183435 59 47 1.0 1.0 0.00 0.00 0.00 81 1021.5
20221208182934 59 28 3.0 5.0 0.00 0.00 0.00 82 1021.8
20221208182433 59 36 2.0 2.0 0.00 0.00 0.00 81 1021.9
20221208181932 60 57 2.0 2.0 0.00 0.00 0.00 80 1021.9
20221208181431 60 56 2.0 2.0 0.00 0.00 0.00 81 1022.1
20221208180931 60 4 4.0 6.0 0.00 0.00 0.00 80 1021.9
20221208180430 60 68 1.0 1.0 0.00 0.00 0.00 81 1022.1
20221208175930 59 32 1.0 1.0 0.00 0.00 0.00 81 1022.1
20221208175429 60 34 2.0 2.0 0.00 0.00 0.00 80 1022.2
20221208174928 60 17 2.0 3.0 0.00 0.00 0.00 80 1022.3
20221208174427 60 62 1.0 2.0 0.00 0.00 0.00 82 1022.2
20221208173925 60 22 1.0 2.0 0.00 0.00 0.00 83 1022.3
20221208173424 60 29 5.0 6.0 0.00 0.00 0.00 81 1022.3
20221208172924 60 29 1.0 1.0 0.00 0.00 0.00 82 1022.1
20221208172423 61 37 1.0 1.0 0.00 0.00 0.00 80 1022.0
20221208171922 61 42 1.0 1.0 0.00 0.00 0.00 80 1022.2
20221208171421 60 29 1.0 2.0 0.00 0.00 0.00 82 1022.0
20221208170921 60 15 1.0 2.0 0.00 0.00 0.00 83 1022.1
20221208170420 60 24 2.0 2.0 0.00 0.00 0.00 82 1022.3
20221208165919 60 346 2.0 2.0 0.00 0.00 0.00 83 1022.2
20221208165418 60 39 1.0 1.0 0.00 0.00 0.00 83 1022.5
20221208164917 60 66 1.0 1.0 0.00 0.00 0.00 83 1022.4
20221208164415 61 24 2.0 2.0 0.00 0.00 0.00 83 1022.3
20221208163914 61 39 2.0 2.0 0.00 0.00 0.00 83 1022.4
20221208163412 61 49 2.0 2.0 0.00 0.00 0.00 81 1022.4
20221208162911 61 30 2.0 3.0 0.00 0.00 0.00 82 1022.4